When you browse on this site, cookies collect data to enhance your experience and personalize the content and advertising you see.
Visit our Privacy Policy to learn more. By continuing to use the site, you agree to this use of cookies and data.
  • In Hungary
  • List of Countries
  • For 7 days
  • Water Temperature
  • Satellite Maps
  • Weather Map
  • News
  • Weather Widgets
  • user-avatar
    Login

    Hourly Weather Chernushka

    Today, 17 November, Saturday

    Time Temperature Precipitation Wind Pressure Humidity
    00:00 -4°C° 0 mm 4 mps 770 mmHg 45%
    01:00 -4°C° 0 mm 4 mps 769 mmHg 48%
    02:00 -4°C° 0 mm 4 mps 769 mmHg 51%
    03:00 -4°C° 0 mm 3 mps 768 mmHg 55%
    04:00 -4°C° 0 mm 3 mps 768 mmHg 57%
    05:00 -4°C° 0 mm 4 mps 767 mmHg 60%
    06:00 -4°C° 0 mm 4 mps 767 mmHg 62%
    07:00 -3°C° 0 mm 4 mps 766 mmHg 64%
    08:00 -3°C° 0 mm 4 mps 766 mmHg 66%
    09:00 -3°C° 0 mm 4 mps 765 mmHg 69%
    10:00 -3°C° 0.1 mm 4 mps 764 mmHg 68%
    11:00 -2°C° 0.1 mm 4 mps 764 mmHg 67%
    12:00 -2°C° 0.1 mm 4 mps 763 mmHg 67%
    13:00 -2°C° 0 mm 4 mps 763 mmHg 68%
    14:00 -2°C° 0 mm 4 mps 762 mmHg 69%
    15:00 -2°C° 0 mm 4 mps 761 mmHg 70%
    16:00 -2°C° 0 mm 4 mps 761 mmHg 73%
    17:00 -2°C° 0 mm 4 mps 760 mmHg 75%
    18:00 -2°C° 0 mm 4 mps 759 mmHg 78%
    19:00 -2°C° 0.2 mm 4 mps 759 mmHg 81%
    20:00 -2°C° 0.2 mm 4 mps 758 mmHg 84%
    21:00 -2°C° 0.2 mm 4 mps 757 mmHg 87%
    22:00 -2°C° 0.2 mm 4 mps 757 mmHg 87%
    23:00 -2°C° 0.2 mm 4 mps 756 mmHg 88%

    Tomorrow, 18 November, Sunday

    Time Temperature Precipitation Wind Pressure Humidity
    00:00 -2°C° 0.2 mm 4 mps 756 mmHg 89%
    01:00 -3°C° 0.3 mm 4 mps 755 mmHg 89%
    02:00 -3°C° 0.3 mm 4 mps 755 mmHg 88%
    03:00 -3°C° 0.3 mm 4 mps 755 mmHg 88%
    04:00 -3°C° 0.1 mm 4 mps 755 mmHg 89%
    05:00 -3°C° 0.1 mm 4 mps 754 mmHg 89%
    06:00 -2°C° 0.1 mm 3 mps 754 mmHg 89%
    07:00 -2°C° 0.1 mm 3 mps 754 mmHg 89%
    08:00 -1°C° 0.1 mm 3 mps 754 mmHg 89%
    09:00 -1°C° 0.1 mm 3 mps 754 mmHg 89%
    10:00 -1°C° 0 mm 3 mps 755 mmHg 89%
    11:00 -1°C° 0 mm 3 mps 755 mmHg 89%
    12:00 0°C° 0 mm 3 mps 755 mmHg 89%
    13:00 +1°C° 0 mm 2 mps 756 mmHg 90%
    14:00 +1°C° 0 mm 2 mps 756 mmHg 91%
    15:00 +1°C° 0 mm 2 mps 756 mmHg 92%
    16:00 -1°C° 0.1 mm 2 mps 756 mmHg 93%
    17:00 -1°C° 0.1 mm 2 mps 757 mmHg 94%
    18:00 -1°C° 0.1 mm 2 mps 757 mmHg 95%
    19:00 -1°C° 0.1 mm 2 mps 757 mmHg 96%
    20:00 -1°C° 0.1 mm 2 mps 757 mmHg 96%
    21:00 -1°C° 0.1 mm 2 mps 758 mmHg 97%
    22:00 -1°C° 0 mm 2 mps 758 mmHg 97%
    23:00 -1°C° 0 mm 2 mps 758 mmHg 97%

    Day after tomorrow, 19 November, Monday

    Time Temperature Precipitation Wind Pressure Humidity
    00:00 -1°C° 0 mm 2 mps 758 mmHg 97%
    01:00 -1°C° 0 mm 2 mps 759 mmHg 97%
    02:00 -1°C° 0 mm 2 mps 759 mmHg 97%
    03:00 -1°C° 0 mm 2 mps 759 mmHg 97%
    04:00 -1°C° 0 mm 2 mps 759 mmHg 97%
    05:00 -1°C° 0 mm 2 mps 760 mmHg 97%
    06:00 -1°C° 0 mm 2 mps 760 mmHg 97%
    07:00 -1°C° 0 mm 2 mps 760 mmHg 96%
    08:00 -1°C° 0 mm 2 mps 761 mmHg 96%
    09:00 +1°C° 0 mm 1 mps 761 mmHg 95%
    10:00 +1°C° 0 mm 1 mps 761 mmHg 94%
    11:00 +2°C° 0 mm 1 mps 762 mmHg 92%
    12:00 +2°C° 0 mm 1 mps 762 mmHg 91%
    13:00 +2°C° 0 mm 1 mps 762 mmHg 92%
    14:00 +2°C° 0 mm 1 mps 763 mmHg 94%
    15:00 +2°C° 0 mm 1 mps 763 mmHg 95%
    16:00 -1°C° 0.1 mm 2 mps 763 mmHg 96%
    17:00 -1°C° 0.1 mm 2 mps 763 mmHg 96%
    18:00 -1°C° 0.1 mm 2 mps 763 mmHg 96%
    19:00 -1°C° 0 mm 2 mps 763 mmHg 96%
    20:00 -1°C° 0 mm 2 mps 763 mmHg 96%
    21:00 -1°C° 0 mm 2 mps 763 mmHg 95%
    22:00 -1°C° 0 mm 2 mps 764 mmHg 95%
    23:00 -1°C° 0 mm 2 mps 764 mmHg 94%

    20 November, Tuesday

    Time Temperature Precipitation Wind Pressure Humidity
    00:00 -1°C° 0 mm 2 mps 764 mmHg 94%
    01:00 -1°C° 0 mm 2 mps 764 mmHg 93%
    02:00 -2°C° 0 mm 2 mps 764 mmHg 93%
    03:00 -2°C° 0 mm 2 mps 764 mmHg 92%
    04:00 -2°C° 0 mm 2 mps 764 mmHg 92%
    05:00 -2°C° 0 mm 2 mps 763 mmHg 92%
    06:00 -2°C° 0 mm 2 mps 763 mmHg 91%
    07:00 -2°C° 0 mm 2 mps 763 mmHg 90%
    08:00 0°C° 0 mm 1 mps 763 mmHg 89%
    09:00 0°C° 0 mm 1 mps 763 mmHg 88%
    10:00 -2°C° 0 mm 2 mps 763 mmHg 85%
    11:00 -2°C° 0 mm 2 mps 762 mmHg 83%
    12:00 -1°C° 0 mm 2 mps 762 mmHg 80%
    13:00 -2°C° 0 mm 2 mps 761 mmHg 81%
    14:00 -2°C° 0 mm 2 mps 761 mmHg 82%
    15:00 -2°C° 0 mm 2 mps 761 mmHg 82%
    16:00 -2°C° 0 mm 2 mps 760 mmHg 84%
    17:00 -3°C° 0 mm 2 mps 760 mmHg 86%
    18:00 -3°C° 0 mm 2 mps 760 mmHg 88%
    19:00 -4°C° 0 mm 3 mps 759 mmHg 87%
    20:00 -4°C° 0 mm 3 mps 759 mmHg 86%
    21:00 -4°C° 0 mm 3 mps 759 mmHg 85%
    22:00 -4°C° 0 mm 3 mps 758 mmHg 85%
    23:00 -4°C° 0 mm 3 mps 758 mmHg 85%

    21 November, Wednesday

    Time Temperature Precipitation Wind Pressure Humidity
    00:00 -4°C° 0 mm 4 mps 757 mmHg 84%
    01:00 -4°C° 0 mm 4 mps 757 mmHg 84%
    02:00 -4°C° 0 mm 4 mps 756 mmHg 84%
    03:00 -4°C° 0 mm 4 mps 756 mmHg 84%
    04:00 -4°C° 0.1 mm 4 mps 756 mmHg 84%
    05:00 -4°C° 0.1 mm 4 mps 755 mmHg 84%
    06:00 -4°C° 0.1 mm 4 mps 755 mmHg 85%
    07:00 -4°C° 0.1 mm 4 mps 755 mmHg 85%
    08:00 -4°C° 0.1 mm 4 mps 755 mmHg 85%
    09:00 -4°C° 0.1 mm 4 mps 755 mmHg 85%
    10:00 -4°C° 0.1 mm 4 mps 754 mmHg 84%
    11:00 -4°C° 0.1 mm 4 mps 754 mmHg 83%
    12:00 -3°C° 0.1 mm 4 mps 754 mmHg 82%
    13:00 -3°C° 0 mm 4 mps 754 mmHg 82%
    14:00 -3°C° 0 mm 4 mps 754 mmHg 82%
    15:00 -2°C° 0 mm 3 mps 754 mmHg 82%
    16:00 -3°C° 0.1 mm 4 mps 754 mmHg 83%
    17:00 -3°C° 0.1 mm 4 mps 754 mmHg 83%
    18:00 -3°C° 0.1 mm 4 mps 754 mmHg 84%
    19:00 -4°C° 0.1 mm 4 mps 754 mmHg 83%
    20:00 -4°C° 0.1 mm 4 mps 754 mmHg 81%
    21:00 -5°C° 0.1 mm 3 mps 754 mmHg 80%
    22:00 -6°C° 0 mm 3 mps 754 mmHg 80%
    23:00 -6°C° 0 mm 3 mps 754 mmHg 80%

    22 November, Thursday

    Time Temperature Precipitation Wind Pressure Humidity
    00:00 -5°C° 0 mm 2 mps 753 mmHg 81%
    01:00 -6°C° 0 mm 2 mps 753 mmHg 83%
    02:00 -6°C° 0 mm 2 mps 753 mmHg 84%
    03:00 -7°C° 0 mm 3 mps 753 mmHg 86%
    04:00 -7°C° 0 mm 3 mps 752 mmHg 88%
    05:00 -7°C° 0 mm 3 mps 752 mmHg 90%
    06:00 -8°C° 0 mm 3 mps 752 mmHg 92%
    07:00 -7°C° 0 mm 3 mps 751 mmHg 91%
    08:00 -8°C° 0 mm 4 mps 751 mmHg 89%
    09:00 -8°C° 0 mm 4 mps 750 mmHg 87%
    10:00 -7°C° 0.1 mm 5 mps 749 mmHg 86%
    11:00 -7°C° 0.1 mm 5 mps 749 mmHg 85%
    12:00 -6°C° 0.1 mm 6 mps 748 mmHg 84%
    13:00 -6°C° 0.4 mm 5 mps 748 mmHg 85%
    14:00 -6°C° 0.4 mm 5 mps 748 mmHg 86%
    15:00 -6°C° 0.4 mm 5 mps 747 mmHg 87%
    16:00 -6°C° 0.1 mm 5 mps 748 mmHg 84%
    17:00 -7°C° 0.1 mm 4 mps 748 mmHg 81%
    18:00 -7°C° 0.1 mm 4 mps 748 mmHg 78%
    19:00 -8°C° 0 mm 4 mps 749 mmHg 78%
    20:00 -9°C° 0 mm 4 mps 749 mmHg 78%
    21:00 -8°C° 0 mm 3 mps 750 mmHg 78%
    22:00 -9°C° 0 mm 3 mps 750 mmHg 80%
    23:00 -9°C° 0 mm 3 mps 751 mmHg 81%
    Show more